Time,TemperatureF,DewpointF,PressureIn,WindDirection,WindDirectionDegrees,WindSpeedMPH,WindSpeedGustMPH,Humidity,HourlyPrecipIn,Conditions,Clouds,dailyrainin,SoftwareType,DateUTC
2013-03-06 00:00:00,63.5,59.9,30.09,NNE,19,2.0,2.0,88,0.00,,,0.00,Wunderground v.1.15,2013-03-06 05:00:00,
2013-03-06 00:05:00,63.4,59.8,30.08,NNE,19,2.0,2.0,88,0.00,,,0.00,Wunderground v.1.15,2013-03-06 05:05:00,
2013-03-06 00:10:00,63.3,60.0,30.08,NNE,19,2.0,2.0,89,0.00,,,0.00,Wunderground v.1.15,2013-03-06 05:10:00,
2013-03-06 00:15:00,63.2,59.9,30.08,NNE,19,1.0,2.0,89,0.00,,,0.00,Wunderground v.1.15,2013-03-06 05:15:00,
2013-03-06 00:20:00,63.2,59.9,30.08,NNE,19,1.0,1.0,89,0.00,,,0.00,Wunderground v.1.15,2013-03-06 05:20:00,
2013-03-06 00:30:00,63.2,59.9,30.07,NNE,19,0.0,0.0,89,0.00,,,0.00,Wunderground v.1.15,2013-03-06 05:30:00,
2013-03-06 00:40:00,63.2,59.9,30.07,SE,139,0.0,2.0,89,0.00,,,0.00,Wunderground v.1.15,2013-03-06 05:40:00,
2013-03-06 00:50:00,63.0,59.7,30.07,SSE,168,3.0,3.0,89,0.00,,,0.00,Wunderground v.1.15,2013-03-06 05:50:00,
2013-03-06 00:55:00,63.0,59.7,30.07,SSE,168,3.0,4.0,89,0.00,,,0.00,Wunderground v.1.15,2013-03-06 05:55:00,
2013-03-06 01:00:00,63.0,59.7,30.07,South,170,3.0,3.0,89,0.00,,,0.00,Wunderground v.1.15,2013-03-06 06:00:00,
2013-03-06 01:05:00,63.1,59.8,30.07,SSE,167,3.0,3.0,89,0.00,,,0.00,Wunderground v.1.15,2013-03-06 06:05:00,
2013-03-06 01:10:00,63.2,59.9,30.07,SSE,167,3.0,3.0,89,0.00,,,0.00,Wunderground v.1.15,2013-03-06 06:10:00,
2013-03-06 01:15:00,63.6,60.0,30.07,South,190,3.0,3.0,88,0.00,,,0.00,Wunderground v.1.15,2013-03-06 06:15:00,
2013-03-06 01:25:00,64.1,60.2,30.07,South,190,1.0,2.0,87,0.00,,,0.00,Wunderground v.1.15,2013-03-06 06:25:00,
2013-03-06 01:30:00,64.1,60.2,30.06,South,190,0.0,0.0,87,0.00,,,0.00,Wunderground v.1.15,2013-03-06 06:30:00,
2013-03-06 01:40:00,64.1,60.2,30.06,South,190,0.0,0.0,87,0.00,,,0.00,Wunderground v.1.15,2013-03-06 06:40:00,
2013-03-06 01:45:00,64.1,59.8,30.06,South,190,0.0,0.0,86,0.00,,,0.00,Wunderground v.1.15,2013-03-06 06:45:00,
2013-03-06 01:55:00,64.5,60.5,30.06,NNW,333,3.0,5.0,87,0.00,,,0.00,Wunderground v.1.15,2013-03-06 06:55:00,
2013-03-06 02:00:00,64.7,60.7,30.06,NNW,339,4.0,4.0,87,0.00,,,0.00,Wunderground v.1.15,2013-03-06 07:00:00,
2013-03-06 02:10:00,64.7,60.7,30.05,NNW,339,1.0,1.0,87,0.00,,,0.00,Wunderground v.1.15,2013-03-06 07:10:00,
2013-03-06 02:15:00,64.7,60.7,30.06,NNW,339,1.0,3.0,87,0.00,,,0.00,Wunderground v.1.15,2013-03-06 07:15:00,
2013-03-06 02:20:00,64.7,61.1,30.06,NNW,329,2.0,3.0,88,0.00,,,0.00,Wunderground v.1.15,2013-03-06 07:20:00,
2013-03-06 02:30:00,65.0,61.7,30.06,NW,308,4.0,4.0,89,0.00,,,0.00,Wunderground v.1.15,2013-03-06 07:30:00,
2013-03-06 02:35:00,65.0,61.7,30.05,NW,310,3.0,4.0,89,0.00,,,0.00,Wunderground v.1.15,2013-03-06 07:35:00,
2013-03-06 02:45:00,64.9,61.6,30.05,NNW,327,3.0,3.0,89,0.00,,,0.00,Wunderground v.1.15,2013-03-06 07:45:00,
2013-03-06 02:50:00,64.8,61.5,30.05,NNW,335,3.0,5.0,89,0.00,,,0.00,Wunderground v.1.15,2013-03-06 07:50:00,
2013-03-06 03:00:00,64.7,61.7,30.05,NNW,336,5.0,6.0,90,0.00,,,0.00,Wunderground v.1.15,2013-03-06 08:00:00,
2013-03-06 03:05:00,64.6,61.6,30.06,NNW,341,5.0,6.0,90,0.00,,,0.00,Wunderground v.1.15,2013-03-06 08:05:00,
2013-03-06 03:10:00,64.6,61.6,30.05,NNW,328,5.0,5.0,90,0.00,,,0.00,Wunderground v.1.15,2013-03-06 08:10:00,
2013-03-06 03:20:00,64.4,61.4,30.05,NNW,343,4.0,6.0,90,0.00,,,0.00,Wunderground v.1.15,2013-03-06 08:20:00,
2013-03-06 03:30:00,64.5,61.5,30.04,NNW,333,6.0,6.0,90,0.00,,,0.00,Wunderground v.1.15,2013-03-06 08:30:00,
2013-03-06 03:40:00,64.4,61.4,30.04,NNW,333,3.0,3.0,90,0.00,,,0.00,Wunderground v.1.15,2013-03-06 08:40:00,
2013-03-06 03:45:00,64.4,61.7,30.04,NNW,333,3.0,4.0,91,0.00,,,0.00,Wunderground v.1.15,2013-03-06 08:45:00,
2013-03-06 03:50:00,64.3,61.6,30.04,NNW,333,3.0,3.0,91,0.00,,,0.00,Wunderground v.1.15,2013-03-06 08:50:00,
2013-03-06 04:00:00,64.3,61.6,30.03,NNW,333,3.0,4.0,91,0.00,,,0.00,Wunderground v.1.15,2013-03-06 09:00:00,
2013-03-06 04:05:00,64.3,61.6,30.03,NNW,333,4.0,4.0,91,0.00,,,0.00,Wunderground v.1.15,2013-03-06 09:05:00,
2013-03-06 04:10:00,64.3,61.6,30.03,NNW,333,4.0,4.0,91,0.00,,,0.00,Wunderground v.1.15,2013-03-06 09:10:00,
2013-03-06 04:20:00,64.7,62.0,30.04,NNW,333,4.0,4.0,91,0.00,,,0.00,Wunderground v.1.15,2013-03-06 09:20:00,
2013-03-06 04:25:00,64.7,62.0,30.03,NW,317,3.0,4.0,91,0.00,,,0.00,Wunderground v.1.15,2013-03-06 09:25:00,
2013-03-06 04:35:00,64.7,61.7,30.03,NW,317,4.0,4.0,90,0.00,,,0.00,Wunderground v.1.15,2013-03-06 09:35:00,
2013-03-06 04:40:00,64.8,61.8,30.03,NW,317,4.0,4.0,90,0.00,,,0.00,Wunderground v.1.15,2013-03-06 09:40:00,
2013-03-06 04:50:00,64.8,61.8,30.03,NW,317,3.0,3.0,90,0.00,,,0.00,Wunderground v.1.15,2013-03-06 09:50:00,
2013-03-06 04:55:00,64.8,61.8,30.03,NW,317,1.0,3.0,90,0.00,,,0.00,Wunderground v.1.15,2013-03-06 09:55:00,
2013-03-06 05:00:00,64.7,61.4,30.04,NW,317,0.0,1.0,89,0.00,,,0.00,Wunderground v.1.15,2013-03-06 10:00:00,
2013-03-06 05:10:00,64.6,61.3,30.04,NW,317,2.0,2.0,89,0.00,,,0.00,Wunderground v.1.15,2013-03-06 10:10:00,
2013-03-06 05:20:00,64.4,61.1,30.04,NW,317,1.0,1.0,89,0.00,,,0.00,Wunderground v.1.15,2013-03-06 10:20:00,
2013-03-06 05:25:00,64.4,61.1,30.05,NW,317,2.0,2.0,89,0.00,,,0.00,Wunderground v.1.15,2013-03-06 10:25:00,
2013-03-06 05:30:00,64.4,61.1,30.05,NW,317,2.0,2.0,89,0.00,,,0.00,Wunderground v.1.15,2013-03-06 10:30:00,
2013-03-06 05:40:00,64.7,61.7,30.05,NW,317,2.0,3.0,90,0.00,,,0.00,Wunderground v.1.15,2013-03-06 10:40:00,
2013-03-06 05:50:00,64.5,61.5,30.06,West,275,2.0,2.0,90,0.00,,,0.00,Wunderground v.1.15,2013-03-06 10:50:00,
2013-03-06 05:55:00,64.7,61.7,30.05,West,275,2.0,2.0,90,0.00,,,0.00,Wunderground v.1.15,2013-03-06 10:55:00,
2013-03-06 06:00:00,64.8,61.8,30.06,West,275,2.0,2.0,90,0.00,,,0.00,Wunderground v.1.15,2013-03-06 11:00:00,
2013-03-06 06:10:00,64.7,61.7,30.06,West,275,2.0,3.0,90,0.00,,,0.00,Wunderground v.1.15,2013-03-06 11:10:00,
2013-03-06 06:20:00,64.7,61.7,30.07,West,273,4.0,4.0,90,0.00,,,0.00,Wunderground v.1.15,2013-03-06 11:20:00,
2013-03-06 06:30:00,64.7,61.7,30.08,WNW,287,5.0,5.0,90,0.00,,,0.00,Wunderground v.1.15,2013-03-06 11:30:00,
2013-03-06 06:35:00,64.7,61.7,30.08,WNW,287,5.0,5.0,90,0.00,,,0.00,Wunderground v.1.15,2013-03-06 11:35:00,
2013-03-06 06:40:00,64.7,61.7,30.08,WNW,287,5.0,5.0,90,0.00,,,0.00,Wunderground v.1.15,2013-03-06 11:40:00,
2013-03-06 06:50:00,64.6,61.6,30.08,WNW,287,4.0,4.0,90,0.00,,,0.00,Wunderground v.1.15,2013-03-06 11:50:00,
2013-03-06 06:55:00,64.6,61.6,30.08,WNW,283,3.0,5.0,90,0.00,,,0.00,Wunderground v.1.15,2013-03-06 11:55:00,
2013-03-06 07:00:00,64.6,61.9,30.08,West,278,4.0,5.0,91,0.00,,,0.00,Wunderground v.1.15,2013-03-06 12:00:00,
2013-03-06 07:10:00,64.7,62.0,30.08,West,281,5.0,5.0,91,0.00,,,0.00,Wunderground v.1.15,2013-03-06 12:10:00,
2013-03-06 07:15:00,64.8,62.1,30.08,West,280,5.0,7.0,91,0.00,,,0.00,Wunderground v.1.15,2013-03-06 12:15:00,
2013-03-06 07:25:00,65.0,62.3,30.08,West,277,4.0,5.0,91,0.00,,,0.00,Wunderground v.1.15,2013-03-06 12:25:00,
2013-03-06 07:30:00,65.5,62.8,30.09,West,271,4.0,4.0,91,0.00,,,0.00,Wunderground v.1.15,2013-03-06 12:30:00,
2013-03-06 07:40:00,66.3,63.3,30.09,West,263,3.0,3.0,90,0.00,,,0.00,Wunderground v.1.15,2013-03-06 12:40:00,
2013-03-06 07:45:00,66.7,63.4,30.09,West,268,3.0,3.0,89,0.00,,,0.00,Wunderground v.1.15,2013-03-06 12:45:00,
2013-03-06 07:55:00,66.8,63.5,30.09,West,268,1.0,3.0,89,0.00,,,0.00,Wunderground v.1.15,2013-03-06 12:55:00,
2013-03-06 08:00:00,66.8,63.5,30.09,West,268,0.0,2.0,89,0.00,,,0.00,Wunderground v.1.15,2013-03-06 13:00:00,
2013-03-06 08:10:00,67.3,63.6,30.09,WSW,254,3.0,3.0,88,0.00,,,0.00,Wunderground v.1.15,2013-03-06 13:10:00,
2013-03-06 08:15:00,67.6,63.3,30.09,West,262,3.0,3.0,86,0.00,,,0.00,Wunderground v.1.15,2013-03-06 13:15:00,
2013-03-06 08:25:00,68.3,63.6,30.10,West,273,4.0,5.0,85,0.00,,,0.00,Wunderground v.1.15,2013-03-06 13:25:00,
2013-03-06 08:30:00,68.6,63.2,30.10,West,266,4.0,5.0,83,0.00,,,0.00,Wunderground v.1.15,2013-03-06 13:30:00,
2013-03-06 08:40:00,68.9,63.2,30.10,West,267,6.0,7.0,82,0.00,,,0.00,Wunderground v.1.15,2013-03-06 13:40:00,
2013-03-06 08:45:00,69.2,63.1,30.10,West,265,6.0,7.0,81,0.00,,,0.00,Wunderground v.1.15,2013-03-06 13:45:00,
2013-03-06 08:50:00,69.2,62.8,30.10,WSW,255,6.0,6.0,80,0.00,,,0.00,Wunderground v.1.15,2013-03-06 13:50:00,
2013-03-06 09:00:00,69.4,62.6,30.10,West,267,7.0,12.0,79,0.00,,,0.00,Wunderground v.1.15,2013-03-06 14:00:00,
2013-03-06 09:05:00,69.7,62.9,30.10,WSW,254,9.0,12.0,79,0.00,,,0.00,Wunderground v.1.15,2013-03-06 14:05:00,
2013-03-06 09:10:00,69.8,62.3,30.10,WSW,248,10.0,10.0,77,0.00,,,0.00,Wunderground v.1.15,2013-03-06 14:10:00,
2013-03-06 09:20:00,70.4,62.8,30.10,West,268,8.0,8.0,77,0.00,,,0.00,Wunderground v.1.15,2013-03-06 14:20:00,
2013-03-06 09:25:00,70.7,62.8,30.10,West,270,8.0,8.0,76,0.00,,,0.00,Wunderground v.1.15,2013-03-06 14:25:00,
2013-03-06 09:30:00,70.9,63.0,30.10,WSW,253,8.0,8.0,76,0.00,,,0.00,Wunderground v.1.15,2013-03-06 14:30:00,
2013-03-06 09:40:00,71.2,62.9,30.10,West,273,8.0,8.0,75,0.00,,,0.00,Wunderground v.1.15,2013-03-06 14:40:00,
2013-03-06 09:45:00,71.4,63.1,30.10,West,259,8.0,8.0,75,0.00,,,0.00,Wunderground v.1.15,2013-03-06 14:45:00,
2013-03-06 09:50:00,71.6,62.5,30.10,WSW,247,8.0,9.0,73,0.00,,,0.00,Wunderground v.1.15,2013-03-06 14:50:00,
2013-03-06 09:55:00,71.8,62.3,30.10,West,259,9.0,9.0,72,0.00,,,0.00,Wunderground v.1.15,2013-03-06 14:55:00,
2013-03-06 10:05:00,71.7,61.8,30.10,West,265,8.0,9.0,71,0.00,,,0.00,Wunderground v.1.15,2013-03-06 15:05:00,
2013-03-06 10:10:00,71.7,61.8,30.11,WSW,248,9.0,10.0,71,0.00,,,0.00,Wunderground v.1.15,2013-03-06 15:10:00,
2013-03-06 10:15:00,71.9,62.4,30.11,West,274,9.0,11.0,72,0.00,,,0.00,Wunderground v.1.15,2013-03-06 15:15:00,
2013-03-06 10:25:00,72.2,61.5,30.11,West,274,11.0,12.0,69,0.00,,,0.00,Wunderground v.1.15,2013-03-06 15:25:00,
2013-03-06 10:31:00,72.6,61.4,30.11,WNW,297,11.0,11.0,68,0.00,,,0.00,Wunderground v.1.15,2013-03-06 15:31:00,
2013-03-06 10:40:00,72.7,61.9,30.11,West,269,10.0,10.0,69,0.00,,,0.00,Wunderground v.1.15,2013-03-06 15:40:00,
2013-03-06 10:46:00,73.1,62.7,30.11,West,279,10.0,10.0,70,0.00,,,0.00,Wunderground v.1.15,2013-03-06 15:46:00,
2013-03-06 11:00:00,73.5,61.9,30.11,West,275,11.0,11.0,67,0.00,,,0.00,Wunderground v.1.15,2013-03-06 16:00:00,
2013-03-06 11:18:00,74.2,62.1,30.11,WSW,252,11.0,11.0,66,0.00,,,0.00,Wunderground v.1.15,2013-03-06 16:18:00,
2013-03-06 11:25:00,74.0,61.9,30.10,West,277,11.0,11.0,66,0.00,,,0.00,Wunderground v.1.15,2013-03-06 16:25:00,
2013-03-06 11:30:00,73.7,62.1,30.10,West,279,12.0,12.0,67,0.00,,,0.00,Wunderground v.1.15,2013-03-06 16:30:00,
2013-03-06 11:35:00,74.0,62.3,30.10,West,263,13.0,14.0,67,0.00,,,0.00,Wunderground v.1.15,2013-03-06 16:35:00,
2013-03-06 11:45:00,74.3,62.6,30.10,West,267,13.0,14.0,67,0.00,,,0.00,Wunderground v.1.15,2013-03-06 16:45:00,
2013-03-06 11:50:00,74.4,61.9,30.09,West,276,14.0,14.0,65,0.00,,,0.00,Wunderground v.1.15,2013-03-06 16:50:00,
2013-03-06 11:55:00,74.4,62.7,30.09,WNW,287,13.0,16.0,67,0.00,,,0.00,Wunderground v.1.15,2013-03-06 16:55:00,
2013-03-06 12:05:00,74.4,62.3,30.09,West,263,14.0,16.0,66,0.00,,,0.00,Wunderground v.1.15,2013-03-06 17:05:00,
2013-03-06 12:10:00,74.4,63.1,30.09,West,275,14.0,14.0,68,0.00,,,0.00,Wunderground v.1.15,2013-03-06 17:10:00,
2013-03-06 12:15:00,74.3,63.1,30.09,West,265,14.0,18.0,68,0.00,,,0.00,Wunderground v.1.15,2013-03-06 17:15:00,
2013-03-06 12:20:00,74.7,63.9,30.09,WNW,285,14.0,14.0,69,0.00,,,0.00,Wunderground v.1.15,2013-03-06 17:20:00,
2013-03-06 12:30:00,74.2,63.4,30.08,West,261,13.0,13.0,69,0.00,,,0.00,Wunderground v.1.15,2013-03-06 17:30:00,
2013-03-06 12:35:00,73.9,63.9,30.08,West,259,13.0,16.0,71,0.00,,,0.00,Wunderground v.1.15,2013-03-06 17:35:00,
2013-03-06 12:45:00,74.0,64.0,30.08,West,264,14.0,16.0,71,0.00,,,0.00,Wunderground v.1.15,2013-03-06 17:45:00,
2013-03-06 12:50:00,74.6,65.4,30.08,West,265,14.0,14.0,73,0.00,,,0.00,Wunderground v.1.15,2013-03-06 17:50:00,
2013-03-06 13:00:00,74.7,64.7,30.07,West,271,13.0,15.0,71,0.00,,,0.00,Wunderground v.1.15,2013-03-06 18:00:00,
2013-03-06 13:05:00,75.2,64.7,30.07,WNW,284,13.0,15.0,70,0.00,,,0.00,Wunderground v.1.15,2013-03-06 18:05:00,
2013-03-06 13:15:00,75.3,64.4,30.06,West,273,13.0,17.0,69,0.00,,,0.00,Wunderground v.1.15,2013-03-06 18:15:00,
2013-03-06 13:20:00,75.1,64.6,30.06,West,267,13.0,13.0,70,0.00,,,0.00,Wunderground v.1.15,2013-03-06 18:20:00,
2013-03-06 13:30:00,75.5,65.0,30.06,West,274,14.0,14.0,70,0.00,,,0.00,Wunderground v.1.15,2013-03-06 18:30:00,
2013-03-06 13:40:00,74.7,64.7,30.06,West,263,16.0,18.0,71,0.00,,,0.00,Wunderground v.1.15,2013-03-06 18:40:00,
2013-03-06 13:45:00,74.6,65.0,30.06,West,277,17.0,18.0,72,0.00,,,0.00,Wunderground v.1.15,2013-03-06 18:45:00,
2013-03-06 13:55:00,75.3,65.2,30.05,West,272,16.0,16.0,71,0.00,,,0.00,Wunderground v.1.15,2013-03-06 18:55:00,
2013-03-06 14:00:00,75.2,65.1,30.05,West,269,17.0,17.0,71,0.00,,,0.00,Wunderground v.1.15,2013-03-06 19:00:00,
2013-03-06 14:05:00,75.3,65.6,30.05,WNW,282,17.0,17.0,72,0.00,,,0.00,Wunderground v.1.15,2013-03-06 19:05:00,
2013-03-06 14:15:00,75.3,65.2,30.05,West,275,17.0,22.0,71,0.00,,,0.00,Wunderground v.1.15,2013-03-06 19:15:00,
2013-03-06 14:20:00,75.0,66.9,30.05,NNW,339,17.0,18.0,76,0.00,,,0.00,Wunderground v.1.15,2013-03-06 19:20:00,
2013-03-06 14:30:00,74.8,67.5,30.04,NW,320,17.0,17.0,78,0.00,,,0.00,Wunderground v.1.15,2013-03-06 19:30:00,
2013-03-06 14:35:00,74.7,67.0,30.04,NW,323,15.0,17.0,77,0.00,,,0.00,Wunderground v.1.15,2013-03-06 19:35:00,
2013-03-06 14:40:00,74.8,67.1,30.04,NW,321,15.0,15.0,77,0.00,,,0.00,Wunderground v.1.15,2013-03-06 19:40:00,
2013-03-06 14:50:00,74.6,66.9,30.04,NNW,344,16.0,16.0,77,0.00,,,0.00,Wunderground v.1.15,2013-03-06 19:50:00,
2013-03-06 14:55:00,73.4,65.7,30.04,NW,317,16.0,16.0,77,0.00,,,0.00,Wunderground v.1.15,2013-03-06 19:55:00,
2013-03-06 15:00:00,73.4,66.1,30.03,NNW,340,16.0,21.0,78,0.00,,,0.00,Wunderground v.1.15,2013-03-06 20:00:00,
2013-03-06 15:10:00,73.1,65.8,30.04,North,354,19.0,21.0,78,0.00,,,0.00,Wunderground v.1.15,2013-03-06 20:10:00,
2013-03-06 15:15:00,72.7,65.8,30.04,NNW,347,20.0,22.0,79,0.00,,,0.00,Wunderground v.1.15,2013-03-06 20:15:00,
2013-03-06 15:25:00,72.7,65.8,30.04,NNW,328,20.0,20.0,79,0.00,,,0.00,Wunderground v.1.15,2013-03-06 20:25:00,
2013-03-06 15:30:00,72.9,65.6,30.04,North,356,19.0,19.0,78,0.00,,,0.00,Wunderground v.1.15,2013-03-06 20:30:00,
2013-03-06 15:40:00,72.4,65.2,30.05,NNW,346,17.0,17.0,78,0.00,,,0.00,Wunderground v.1.15,2013-03-06 20:40:00,
2013-03-06 15:45:00,72.0,64.4,30.04,NW,319,15.0,17.0,77,0.00,,,0.00,Wunderground v.1.15,2013-03-06 20:45:00,
2013-03-06 15:50:00,71.9,63.9,30.04,NW,315,15.0,15.0,76,0.00,,,0.00,Wunderground v.1.15,2013-03-06 20:50:00,
2013-03-06 16:00:00,71.5,63.5,30.04,NW,321,13.0,13.0,76,0.00,,,0.00,Wunderground v.1.15,2013-03-06 21:00:00,
2013-03-06 16:05:00,71.3,63.0,30.04,NNW,329,13.0,13.0,75,0.00,,,0.00,Wunderground v.1.15,2013-03-06 21:05:00,
2013-03-06 16:10:00,71.7,64.1,30.04,NW,325,14.0,14.0,77,0.00,,,0.00,Wunderground v.1.15,2013-03-06 21:10:00,
2013-03-06 16:20:00,72.5,64.5,30.04,WNW,303,13.0,17.0,76,0.00,,,0.00,Wunderground v.1.15,2013-03-06 21:20:00,
2013-03-06 16:25:00,71.9,63.9,30.04,NW,307,13.0,17.0,76,0.00,,,0.00,Wunderground v.1.15,2013-03-06 21:25:00,
2013-03-06 16:35:00,71.7,63.4,30.04,NNW,330,13.0,14.0,75,0.00,,,0.00,Wunderground v.1.15,2013-03-06 21:35:00,
2013-03-06 16:40:00,71.1,62.8,30.04,NW,309,13.0,14.0,75,0.00,,,0.00,Wunderground v.1.15,2013-03-06 21:40:00,
2013-03-06 16:50:00,70.4,62.8,30.03,NW,322,14.0,14.0,77,0.00,,,0.00,Wunderground v.1.15,2013-03-06 21:50:00,
2013-03-06 16:55:00,70.5,62.9,30.04,NW,323,13.0,14.0,77,0.00,,,0.00,Wunderground v.1.15,2013-03-06 21:55:00,
2013-03-06 17:00:00,71.0,63.8,30.03,NNW,337,12.0,13.0,78,0.00,,,0.00,Wunderground v.1.15,2013-03-06 22:00:00,
2013-03-06 17:10:00,70.8,62.9,30.04,NW,318,14.0,14.0,76,0.00,,,0.00,Wunderground v.1.15,2013-03-06 22:10:00,
2013-03-06 17:15:00,70.8,63.6,30.04,NW,325,15.0,15.0,78,0.00,,,0.00,Wunderground v.1.15,2013-03-06 22:15:00,
2013-03-06 17:20:00,70.6,63.0,30.04,NNW,340,15.0,16.0,77,0.00,,,0.00,Wunderground v.1.15,2013-03-06 22:20:00,
2013-03-06 17:30:00,69.3,61.8,30.04,NNW,339,16.0,20.0,77,0.00,,,0.00,Wunderground v.1.15,2013-03-06 22:30:00,
2013-03-06 17:35:00,69.1,61.9,30.04,NW,316,17.0,20.0,78,0.00,,,0.00,Wunderground v.1.15,2013-03-06 22:35:00,
2013-03-06 17:40:00,68.6,61.8,30.05,NW,320,17.0,17.0,79,0.00,,,0.00,Wunderground v.1.15,2013-03-06 22:40:00,
2013-03-06 17:50:00,68.7,61.9,30.04,NW,305,15.0,18.0,79,0.00,,,0.00,Wunderground v.1.15,2013-03-06 22:50:00,
2013-03-06 17:55:00,68.1,61.0,30.05,NNW,333,17.0,18.0,78,0.00,,,0.00,Wunderground v.1.15,2013-03-06 22:55:00,
2013-03-06 18:05:00,67.9,61.5,30.05,NW,319,16.0,18.0,80,0.00,,,0.00,Wunderground v.1.15,2013-03-06 23:05:00,
2013-03-06 18:10:00,67.6,60.9,30.05,NW,325,17.0,17.0,79,0.00,,,0.00,Wunderground v.1.15,2013-03-06 23:10:00,
2013-03-06 18:15:00,67.6,61.2,30.05,NNW,330,16.0,17.0,80,0.00,,,0.00,Wunderground v.1.15,2013-03-06 23:15:00,
2013-03-06 18:25:00,66.9,60.2,30.06,NW,318,17.0,21.0,79,0.00,,,0.00,Wunderground v.1.15,2013-03-06 23:25:00,
2013-03-06 18:30:00,67.0,61.0,30.06,NW,313,16.0,18.0,81,0.00,,,0.00,Wunderground v.1.15,2013-03-06 23:30:00,
2013-03-06 18:40:00,66.7,60.7,30.06,NW,324,17.0,17.0,81,0.00,,,0.00,Wunderground v.1.15,2013-03-06 23:40:00,
2013-03-06 18:45:00,66.8,61.1,30.06,NNW,327,18.0,20.0,82,0.00,,,0.00,Wunderground v.1.15,2013-03-06 23:45:00,
2013-03-06 18:50:00,66.5,60.5,30.06,NW,319,18.0,18.0,81,0.00,,,0.00,Wunderground v.1.15,2013-03-06 23:50:00,
2013-03-06 19:00:00,66.3,60.6,30.06,NNW,331,19.0,19.0,82,0.00,,,0.00,Wunderground v.1.15,2013-03-07 00:00:00,
2013-03-06 19:05:00,66.1,60.4,30.06,NNW,334,18.0,19.0,82,0.00,,,0.00,Wunderground v.1.15,2013-03-07 00:05:00,
2013-03-06 19:10:00,65.9,60.2,30.07,NNW,346,18.0,18.0,82,0.00,,,0.00,Wunderground v.1.15,2013-03-07 00:10:00,
2013-03-06 19:20:00,65.9,60.6,30.07,NNW,343,18.0,22.0,83,0.00,,,0.00,Wunderground v.1.15,2013-03-07 00:20:00,
2013-03-06 19:25:00,65.7,60.4,30.07,NNW,330,20.0,23.0,83,0.00,,,0.00,Wunderground v.1.15,2013-03-07 00:25:00,
2013-03-06 19:35:00,65.7,60.4,30.07,NNW,340,20.0,22.0,83,0.00,,,0.00,Wunderground v.1.15,2013-03-07 00:35:00,
2013-03-06 19:40:00,65.5,60.2,30.08,NNW,346,19.0,21.0,83,0.00,,,0.00,Wunderground v.1.15,2013-03-07 00:40:00,
2013-03-06 19:45:00,65.5,60.2,30.08,North,355,20.0,21.0,83,0.00,,,0.00,Wunderground v.1.15,2013-03-07 00:45:00,
2013-03-06 19:55:00,65.2,59.9,30.08,NNW,338,20.0,22.0,83,0.00,,,0.00,Wunderground v.1.15,2013-03-07 00:55:00,
2013-03-06 20:00:00,65.3,60.3,30.08,NNW,342,21.0,24.0,84,0.00,,,0.00,Wunderground v.1.15,2013-03-07 01:00:00,
2013-03-06 20:10:00,65.3,60.3,30.08,North,353,22.0,22.0,84,0.00,,,0.00,Wunderground v.1.15,2013-03-07 01:10:00,
2013-03-06 20:15:00,65.2,60.2,30.08,NNW,344,22.0,22.0,84,0.00,,,0.00,Wunderground v.1.15,2013-03-07 01:15:00,
2013-03-06 20:20:00,65.2,60.2,30.08,NNW,344,21.0,23.0,84,0.00,,,0.00,Wunderground v.1.15,2013-03-07 01:20:00,
2013-03-06 20:30:00,64.9,59.6,30.09,North,351,21.0,22.0,83,0.00,,,0.00,Wunderground v.1.15,2013-03-07 01:30:00,
2013-03-06 20:35:00,64.8,59.5,30.09,NNW,344,21.0,22.0,83,0.00,,,0.00,Wunderground v.1.15,2013-03-07 01:35:00,
2013-03-06 20:40:00,64.7,59.4,30.09,NW,319,21.0,21.0,83,0.00,,,0.00,Wunderground v.1.15,2013-03-07 01:40:00,
2013-03-06 20:50:00,64.8,59.5,30.09,NNW,330,20.0,21.0,83,0.00,,,0.00,Wunderground v.1.15,2013-03-07 01:50:00,
2013-03-06 20:55:00,64.5,59.2,30.09,NNW,336,20.0,21.0,83,0.00,,,0.00,Wunderground v.1.15,2013-03-07 01:55:00,
2013-03-06 21:05:00,64.3,58.7,30.09,NNW,338,19.0,26.0,82,0.00,,,0.00,Wunderground v.1.15,2013-03-07 02:05:00,
2013-03-06 21:10:00,64.4,58.8,30.10,NNW,346,18.0,23.0,82,0.00,,,0.00,Wunderground v.1.15,2013-03-07 02:10:00,
2013-03-06 21:15:00,64.4,58.8,30.10,NW,326,19.0,23.0,82,0.00,,,0.00,Wunderground v.1.15,2013-03-07 02:15:00,
2013-03-06 21:25:00,64.3,58.7,30.10,North,352,19.0,22.0,82,0.00,,,0.00,Wunderground v.1.15,2013-03-07 02:25:00,
2013-03-06 21:30:00,64.3,58.3,30.10,NNW,327,19.0,19.0,81,0.00,,,0.00,Wunderground v.1.15,2013-03-07 02:30:00,
2013-03-06 21:40:00,64.2,57.9,30.10,NW,314,20.0,20.0,80,0.00,,,0.00,Wunderground v.1.15,2013-03-07 02:40:00,
2013-03-06 21:45:00,64.1,57.8,30.11,NNW,340,20.0,20.0,80,0.00,,,0.00,Wunderground v.1.15,2013-03-07 02:45:00,
2013-03-06 21:55:00,64.1,57.8,30.10,NNW,327,19.0,21.0,80,0.00,,,0.00,Wunderground v.1.15,2013-03-07 02:55:00,
2013-03-06 22:00:00,64.0,57.4,30.10,NW,310,19.0,20.0,79,0.00,,,0.00,Wunderground v.1.15,2013-03-07 03:00:00,
2013-03-06 22:10:00,64.1,57.5,30.10,NNW,335,20.0,23.0,79,0.00,,,0.00,Wunderground v.1.15,2013-03-07 03:10:00,
2013-03-06 22:15:00,63.9,56.9,30.11,NNW,342,19.0,23.0,78,0.00,,,0.00,Wunderground v.1.15,2013-03-07 03:15:00,
2013-03-06 22:25:00,63.9,56.9,30.10,NW,326,19.0,21.0,78,0.00,,,0.00,Wunderground v.1.15,2013-03-07 03:25:00,
2013-03-06 22:30:00,63.7,56.0,30.10,NNW,338,19.0,22.0,76,0.00,,,0.00,Wunderground v.1.15,2013-03-07 03:30:00,
2013-03-06 22:40:00,64.0,56.6,30.10,NNW,336,19.0,19.0,77,0.00,,,0.00,Wunderground v.1.15,2013-03-07 03:40:00,
2013-03-06 22:45:00,63.8,56.1,30.11,NNW,331,18.0,19.0,76,0.00,,,0.00,Wunderground v.1.15,2013-03-07 03:45:00,
2013-03-06 22:55:00,63.9,56.2,30.11,NW,317,19.0,19.0,76,0.00,,,0.00,Wunderground v.1.15,2013-03-07 03:55:00,
2013-03-06 23:00:00,63.8,55.7,30.11,NW,320,19.0,19.0,75,0.00,,,0.00,Wunderground v.1.15,2013-03-07 04:00:00,
2013-03-06 23:05:00,64.1,56.4,30.11,NNW,338,18.0,19.0,76,0.00,,,0.00,Wunderground v.1.15,2013-03-07 04:05:00,
2013-03-06 23:15:00,64.0,56.6,30.11,NW,321,17.0,18.0,77,0.00,,,0.00,Wunderground v.1.15,2013-03-07 04:15:00,
2013-03-06 23:25:00,63.9,56.5,30.11,North,352,18.0,18.0,77,0.00,,,0.00,Wunderground v.1.15,2013-03-07 04:25:00,
2013-03-06 23:30:00,63.7,56.0,30.11,North,353,17.0,17.0,76,0.00,,,0.00,Wunderground v.1.15,2013-03-07 04:30:00,
2013-03-06 23:35:00,63.8,56.4,30.11,NNW,341,16.0,18.0,77,0.00,,,0.00,Wunderground v.1.15,2013-03-07 04:35:00,
2013-03-06 23:45:00,63.8,56.1,30.11,NW,316,17.0,17.0,76,0.00,,,0.00,Wunderground v.1.15,2013-03-07 04:45:00,
2013-03-06 23:50:00,63.7,55.6,30.11,NW,323,16.0,18.0,75,0.00,,,0.00,Wunderground v.1.15,2013-03-07 04:50:00,